| time (UTC) | temp F | wind direction | speed MPH | gust MPH | rain 1hr in | rain 24hr in | rain mn in | humidity % | barometer mb |
| 20260508093028 | 32 | 134 | 0.0 | 5.0 | 0.00 | 0.00 | 0.00 | 78 | 1012.6 |
| 20260508091527 | 33 | 140 | 0.0 | 1.0 | 0.00 | 0.00 | 0.00 | 75 | 1012.6 |
| 20260508090028 | 35 | 134 | 0.0 | 1.0 | 0.00 | 0.00 | 0.00 | 74 | 1012.6 |
| 20260508084522 | 34 | 143 | 0.0 | 1.0 | 0.00 | 0.00 | 0.00 | 75 | 1012.6 |
| 20260508083019 | 34 | 143 | 0.0 | 1.0 | 0.00 | 0.00 | 0.00 | 75 | 1012.3 |
| 20260508081519 | 34 | 143 | 0.0 | 1.0 | 0.00 | 0.00 | 0.00 | 76 | 1012.2 |
| 20260508080022 | 34 | 143 | 0.0 | 0.0 | 0.00 | 0.00 | 0.00 | 75 | 1012.3 |
| 20260508074517 | 35 | 118 | 0.0 | 1.0 | 0.00 | 0.00 | 0.00 | 74 | 1012.1 |
| 20260508073010 | 36 | 120 | 0.0 | 2.0 | 0.00 | 0.00 | 0.00 | 69 | 1012.0 |
| 20260508071509 | 37 | 140 | 0.0 | 1.0 | 0.00 | 0.00 | 0.00 | 68 | 1011.9 |
| 20260508070005 | 38 | 140 | 0.0 | 2.0 | 0.00 | 0.00 | 0.00 | 66 | 1011.9 |
| 20260508064511 | 38 | 140 | 0.0 | 1.0 | 0.00 | 0.00 | 0.00 | 64 | 1011.9 |
| 20260508063001 | 38 | 167 | 1.0 | 4.0 | 0.00 | 0.00 | 0.00 | 64 | 1012.0 |
| 20260508061603 | 38 | 162 | 0.0 | 3.0 | 0.00 | 0.00 | 0.00 | 64 | 1011.9 |
| 20260508060059 | 39 | 117 | 0.0 | 1.0 | 0.00 | 0.00 | 0.00 | 63 | 1011.8 |
| 20260508054624 | 40 | 115 | 0.0 | 0.0 | 0.00 | 0.00 | 0.00 | 60 | 1011.8 |
| 20260508053103 | 41 | 116 | 0.0 | 1.0 | 0.00 | 0.00 | 0.00 | 59 | 1011.7 |
| 20260508051600 | 42 | 321 | 0.0 | 2.0 | 0.00 | 0.00 | 0.00 | 56 | 1011.4 |
| 20260508050057 | 43 | 138 | 0.0 | 1.0 | 0.00 | 0.00 | 0.00 | 53 | 1011.2 |
| 20260508044554 | 44 | 71 | 0.0 | 2.0 | 0.00 | 0.00 | 0.00 | 50 | 1011.1 |
| 20260508043057 | 45 | 61 | 0.0 | 1.0 | 0.00 | 0.00 | 0.00 | 49 | 1011.1 |
| 20260508041554 | 45 | 30 | 0.0 | 1.0 | 0.00 | 0.00 | 0.00 | 49 | 1010.9 |
| 20260508034553 | 47 | 36 | 0.0 | 2.0 | 0.00 | 0.00 | 0.00 | 46 | 1010.6 |
| 20260508033053 | 48 | 65 | 0.0 | 2.0 | 0.00 | 0.00 | 0.00 | 44 | 1010.5 |
| 20260508031601 | 49 | 355 | 0.0 | 1.0 | 0.00 | 0.00 | 0.00 | 43 | 1010.2 |
| 20260508030100 | 52 | 360 | 0.0 | 1.0 | 0.00 | 0.00 | 0.00 | 40 | 1010.1 |
| 20260508024553 | 54 | 355 | 0.0 | 3.0 | 0.00 | 0.00 | 0.00 | 37 | 1009.9 |
| 20260508023051 | 56 | 360 | 0.0 | 3.0 | 0.00 | 0.00 | 0.00 | 33 | 1009.7 |
| 20260508021556 | 57 | 323 | 1.0 | 4.0 | 0.00 | 0.00 | 0.00 | 31 | 1009.6 |
| 20260508020052 | 58 | 320 | 2.0 | 5.0 | 0.00 | 0.00 | 0.00 | 31 | 1009.4 |
| 20260508014551 | 59 | 309 | 3.0 | 7.0 | 0.00 | 0.00 | 0.00 | 30 | 1009.3 |
| 20260508013048 | 60 | 360 | 2.0 | 10.0 | 0.00 | 0.00 | 0.00 | 29 | 1009.3 |
| 20260508011551 | 60 | 312 | 3.0 | 7.0 | 0.00 | 0.00 | 0.00 | 29 | 1009.3 |
| 20260508010047 | 61 | 313 | 1.0 | 5.0 | 0.00 | 0.00 | 0.00 | 28 | 1009.2 |
| 20260508004547 | 61 | 261 | 1.0 | 5.0 | 0.00 | 0.00 | 0.00 | 30 | 1009.3 |
| 20260508003047 | 62 | 334 | 2.0 | 10.0 | 0.00 | 0.00 | 0.00 | 29 | 1009.3 |
| 20260508001546 | 63 | 313 | 1.0 | 9.0 | 0.00 | 0.00 | 0.00 | 28 | 1009.2 |
| 20260507234548 | 63 | 69 | 2.0 | 9.0 | 0.00 | 0.00 | 0.00 | 28 | 1009.0 |
| 20260507233044 | 63 | 355 | 3.0 | 6.0 | 0.00 | 0.00 | 0.00 | 26 | 1009.1 |
| 20260507231546 | 63 | 320 | 2.0 | 8.0 | 0.00 | 0.00 | 0.00 | 25 | 1009.1 |
| 20260507230041 | 63 | 342 | 2.0 | 8.0 | 0.00 | 0.00 | 0.00 | 28 | 1009.2 |
| 20260507224541 | 62 | 335 | 2.0 | 10.0 | 0.00 | 0.00 | 0.00 | 26 | 1009.3 |
| 20260507223039 | 63 | 340 | 4.0 | 9.0 | 0.00 | 0.00 | 0.00 | 25 | 1009.6 |
| 20260507221538 | 63 | 326 | 3.0 | 8.0 | 0.00 | 0.00 | 0.00 | 28 | 1009.6 |
| 20260507220037 | 63 | 342 | 3.0 | 8.0 | 0.00 | 0.00 | 0.00 | 27 | 1009.8 |
| 20260507214539 | 63 | 339 | 3.0 | 7.0 | 0.00 | 0.00 | 0.00 | 25 | 1009.9 |
| 20260507213039 | 63 | 336 | 3.0 | 8.0 | 0.00 | 0.00 | 0.00 | 28 | 1010.0 |
| 20260507211545 | 62 | 326 | 3.0 | 15.0 | 0.00 | 0.00 | 0.00 | 25 | 1010.1 |
| 20260507210034 | 64 | 360 | 3.0 | 8.0 | 0.00 | 0.00 | 0.00 | 24 | 1010.4 |
| 20260507204529 | 62 | 38 | 2.0 | 9.0 | 0.00 | 0.00 | 0.00 | 26 | 1010.5 |
| 20260507203029 | 63 | 293 | 3.0 | 8.0 | 0.00 | 0.00 | 0.00 | 25 | 1010.4 |
| 20260507201526 | 62 | 236 | 2.0 | 7.0 | 0.00 | 0.00 | 0.00 | 27 | 1010.5 |
| 20260507200024 | 62 | 248 | 2.0 | 8.0 | 0.00 | 0.00 | 0.00 | 29 | 1010.7 |
| 20260507194522 | 61 | 304 | 0.0 | 8.0 | 0.00 | 0.00 | 0.00 | 27 | 1010.8 |
| 20260507193022 | 61 | 171 | 1.0 | 5.0 | 0.00 | 0.00 | 0.00 | 27 | 1010.9 |
| 20260507191520 | 61 | 313 | 2.0 | 4.0 | 0.00 | 0.00 | 0.00 | 26 | 1010.9 |
| 20260507190018 | 60 | 321 | 2.0 | 5.0 | 0.00 | 0.00 | 0.00 | 27 | 1011.1 |
| 20260507184516 | 60 | 246 | 1.0 | 4.0 | 0.00 | 0.00 | 0.00 | 29 | 1011.2 |
| 20260507183014 | 60 | 19 | 1.0 | 7.0 | 0.00 | 0.00 | 0.00 | 28 | 1011.3 |
| 20260507181514 | 59 | 242 | 1.0 | 4.0 | 0.00 | 0.00 | 0.00 | 30 | 1011.3 |
| 20260507180013 | 58 | 342 | 3.0 | 7.0 | 0.00 | 0.00 | 0.00 | 31 | 1011.2 |
| 20260507174514 | 58 | 319 | 1.0 | 5.0 | 0.00 | 0.00 | 0.00 | 34 | 1011.3 |
| 20260507173006 | 57 | 190 | 1.0 | 7.0 | 0.00 | 0.00 | 0.00 | 36 | 1011.5 |
| 20260507171503 | 56 | 308 | 2.0 | 4.0 | 0.00 | 0.00 | 0.00 | 38 | 1011.5 |
| 20260507170002 | 55 | 222 | 1.0 | 4.0 | 0.00 | 0.00 | 0.00 | 42 | 1011.5 |
| 20260507164601 | 55 | 326 | 2.0 | 7.0 | 0.00 | 0.00 | 0.00 | 40 | 1011.5 |
| 20260507163058 | 55 | 335 | 3.0 | 6.0 | 0.00 | 0.00 | 0.00 | 42 | 1011.5 |
| 20260507161555 | 53 | 195 | 0.0 | 4.0 | 0.00 | 0.00 | 0.00 | 46 | 1011.6 |
| 20260507160111 | 51 | 244 | 0.0 | 3.0 | 0.00 | 0.00 | 0.00 | 54 | 1011.8 |
| 20260507154545 | 49 | 338 | 0.0 | 2.0 | 0.00 | 0.00 | 0.00 | 63 | 1011.9 |
| 20260507153040 | 46 | 145 | 0.0 | 2.0 | 0.00 | 0.00 | 0.00 | 72 | 1012.1 |
| 20260507151536 | 44 | 142 | 0.0 | 2.0 | 0.00 | 0.00 | 0.00 | 77 | 1012.4 |
| 20260507150038 | 41 | 140 | 0.0 | 1.0 | 0.00 | 0.00 | 0.00 | 81 | 1012.6 |
| 20260507144535 | 39 | 140 | 0.0 | 2.0 | 0.00 | 0.00 | 0.00 | 86 | 1012.8 |
| 20260507143034 | 37 | 140 | 0.0 | 1.0 | 0.00 | 0.00 | 0.00 | 90 | 1012.9 |
| 20260507141534 | 35 | 140 | 0.0 | 2.0 | 0.00 | 0.00 | 0.00 | 91 | 1012.9 |
| 20260507140044 | 33 | 140 | 0.0 | 1.0 | 0.00 | 0.00 | 0.00 | 93 | 1012.8 |
| 20260507134533 | 32 | 140 | 0.0 | 1.0 | 0.00 | 0.00 | 0.00 | 92 | 1012.8 |
| 20260507133034 | 32 | 140 | 0.0 | 1.0 | 0.00 | 0.00 | 0.00 | 91 | 1012.6 |
| 20260507131600 | 32 | 140 | 0.0 | 1.0 | 0.00 | 0.00 | 0.00 | 91 | 1012.5 |
| 20260507130030 | 33 | 140 | 0.0 | 2.0 | 0.00 | 0.00 | 0.00 | 90 | 1012.5 |
| 20260507124531 | 33 | 140 | 0.0 | 0.0 | 0.00 | 0.00 | 0.00 | 92 | 1012.4 |
| 20260507123033 | 33 | 140 | 0.0 | 1.0 | 0.00 | 0.00 | 0.00 | 88 | 1012.3 |
| 20260507121526 | 33 | 140 | 0.0 | 1.0 | 0.00 | 0.00 | 0.00 | 89 | 1012.5 |
| 20260507120030 | 34 | 140 | 0.0 | 1.0 | 0.00 | 0.00 | 0.00 | 88 | 1012.4 |
| 20260507114522 | 34 | 140 | 0.0 | 1.0 | 0.00 | 0.00 | 0.00 | 89 | 1012.5 |
| 20260507113049 | 35 | 140 | 0.0 | 1.0 | 0.00 | 0.00 | 0.00 | 87 | 1012.6 |
| 20260507111518 | 35 | 140 | 0.0 | 0.0 | 0.00 | 0.00 | 0.00 | 84 | 1012.6 |
| 20260507110015 | 36 | 140 | 0.0 | 2.0 | 0.00 | 0.00 | 0.00 | 84 | 1012.7 |
| 20260507104517 | 37 | 142 | 0.0 | 0.0 | 0.00 | 0.00 | 0.00 | 83 | 1012.7 |
| 20260507103010 | 38 | 146 | 0.0 | 2.0 | 0.00 | 0.00 | 0.00 | 83 | 1012.8 |
| 20260507101508 | 38 | 153 | 0.0 | 1.0 | 0.00 | 0.00 | 0.00 | 83 | 1012.9 |
| 20260507100009 | 38 | 167 | 0.0 | 0.0 | 0.00 | 0.00 | 0.00 | 82 | 1013.0 |
| 20260507094504 | 38 | 168 | 0.0 | 0.0 | 0.00 | 0.00 | 0.00 | 82 | 1013.2 |